Regional Weather Roundup
Issued by NWS

Home | Current Version | Previous Version | Text Only | Print | Product List | Glossary Off
Versions: 1 2 3 4 5 6 7 8 9 10 11 12 13 14 15 16 17 18 19 20 21 22 23 24 25 26 27 28 29 30 31 32 33 34 35 36 37 38 39 40 41 42 43 44 45 46 47 48 49 50

598
ASUS43 KBIS 080910
RWRND

NORTH DAKOTA REGIONAL WEATHER ROUNDUP
NATIONAL WEATHER SERVICE BISMARCK ND
300 AM CST THU DEC 08 2016

NOTE: "FAIR" INDICATES FEW OR NO CLOUDS BELOW 12,000 FEET WITH NO
SIGNIFICANT WEATHER AND/OR OBSTRUCTIONS TO VISIBILITY.


NDZ001>003-009>011-017-081000-
NORTHWEST NORTH DAKOTA

CITY           SKY/WX    TMP DP  RH WIND       PRES   REMARKS
WILLISTON      CLOUDY    -1  -9  68 W9        30.62R WCI -16
MINOT          LGT SNOW   5   0  79 W24       30.51R WCI -17
MINOT AFB      MOCLDY     3  -2  80 NW28G35   30.50R FOG     WCI -21
$$

NDZ018>021-031>035-040>046-081000-
SOUTHWEST NORTH DAKOTA

CITY           SKY/WX    TMP DP  RH WIND       PRES   REMARKS
BISMARCK       CLOUDY     5   0  79 NW17G25   30.54R WCI -14
DICKINSON      CLEAR     -6 -11  79 NW15      30.51R WCI -27
GARRISON         N/A      2  -3  80 NW26G36   30.50R WCI -22
HETTINGER ARPT CLEAR     -3  -9  75 NW16      30.53R WCI -24
$$

NDZ004>008-012>016-024-026-027-054-081000-
NORTHEAST NORTH DAKOTA

CITY           SKY/WX    TMP DP  RH WIND       PRES   REMARKS
GRAND FORKS    LGT SNOW  17  12  80 NW22G29   30.34R WCI   0
GRND FRKS AFB  FLURRIES  15   9  77 N20G28    30.35R WCI  -2
DEVILS LAKE    FLURRIES  10   6  84 NW22      30.39R WCI -10
$$

NDZ022-023-025-028>030-036>039-047>053-081000-
SOUTHEAST NORTH DAKOTA

CITY           SKY/WX    TMP DP  RH WIND       PRES   REMARKS
FARGO          CLOUDY    17  11  77 NW24G33   30.33R WCI  -1
JAMESTOWN      CLOUDY     6   2  83 NW25G33   30.41R BLWGSNOWWCI -16
$$





USA.gov is the U.S. government's official web portal to all federal, state and local government web resources and services.